Regional Weather Roundup
Issued by NWS

Home | Current Version | Previous Version | Text Only | Print | Product List | Glossary On
Versions: 1 2 3 4 5 6 7 8 9 10 11 12 13 14 15 16 17 18 19 20 21 22 23 24 25 26 27 28 29 30 31 32 33 34 35 36 37 38 39 40 41 42 43 44 45 46 47 48 49 50
000
ASUS44 KLIX 300712
RWRLA
LOUISIANA WEATHER ROUNDUP
NATIONAL WEATHER SERVICE NEW ORLEANS LA
200 AM CDT SAT MAY 30 2015

NOTE: "FAIR" INDICATES FEW OR NO CLOUDS BELOW 12,000 FEET WITH NO
      SIGNIFICANT WEATHER AND/OR OBSTRUCTIONS TO VISIBILITY.
      SKY/WX - SKY CONDITION AND SIGNIFICANT WEATHER.
      TMP - AIR TEMPERATURE.    DP   - DEWPOINT TEMPERATURE.
      RH  - RELATIVE HUMIDITY.  PRES - PRESSURE.
      HX  - HEAT INDEX.         WCI  - WIND CHILL INDEX.

*  THESE STATIONS ARE NOT NWS OR FAA STATIONS AND ARE NOT UNDER
   NWS QUALITY CONTROL.

LAZ040-048-061>063-065-066-069-300800-
SOUTHEAST LOUISIANA

CITY           SKY/WX    TMP DP  RH WIND       PRES   REMARKS
N.O. AUDUBON     N/A     76  73  91 MISG        N/A
N.O. INTL ARPT PTCLDY    76  70  82 SE3       30.04F
N.O. LAKEFRONT CLEAR     78  70  76 SE5       30.04F
SLIDELL        CLEAR     71  71 100 CALM      30.04F
BATON ROUGE    CLEAR     72  70  93 CALM      30.04S
BOOTHVILLE     PTCLDY    76  73  91 CALM      30.04F
BELLE CHASSE   CLEAR     70  68  93 E3        30.03F FOG
BOGALUSA*        N/A     71  68  89 CALM      30.07F
GALLIANO*      SUNNY     72  70  92 CALM      30.04F
NEW ROADS*     FAIR      73  72  96 CALM      30.03F
GONZALES*      FAIR      73  73 100 CALM      30.03F
HAMMOND*       MOCLDY    72  68  88 CALM      30.06F
HOUMA*         PTCLDY    72  70  94 CALM      30.03F
PORT FOURCHON* MOSUNNY   81  70  69 SE8       30.04F

$$

LAZ041-044-053-054-300800-
SOUTHWEST LOUISIANA

CITY           SKY/WX    TMP DP  RH WIND       PRES   REMARKS
LAKE CHARLES   CLEAR     74  73  97 SE5       30.01S
LAFAYETTE      PTCLDY    74  72  93 CALM      30.02F
PATTERSON      PTCLDY    73  70  88 SE6       30.04F
SALT POINT       N/A     76  74  93 SE5       30.00F
NEW IBERIA     CLEAR     74  72  93 SE5       30.02F
CHENAULT AIRPK PTCLDY    74  73  96 S5        30.01F

$$

LAZ027-028-300800-
CENTRAL LOUISIANA

CITY           SKY/WX    TMP DP  RH WIND       PRES   REMARKS
FORT POLK      CLEAR     73  72  94 S6        30.00F
ALEXANDRIA INT CLEAR     73  72  96 SE3       30.00F
ALEXANDRIA     PTCLDY    74  71  91 S3        30.02S

$$

LAZ001-002-300800-
NORTHWEST LOUISIANA

CITY           SKY/WX    TMP DP  RH WIND       PRES   REMARKS
SHREVEPORT     PTCLDY    75  71  87 SW5       29.98S
BARKSDALE AFB  CLEAR     75  72  90 S9        29.98S
DTN SHREVEPORT MOCLDY    76  70  82 S8        29.98S

$$

LAZ014-016-300800-
NORTHEAST LOUISIANA

CITY           SKY/WX    TMP DP  RH WIND       PRES   REMARKS
MONROE         MOCLDY    69  68  96 CALM      30.01S
TALLULAH       MOCLDY    71  68  90 SE5       30.02F

$$



USA.gov is the U.S. government's official web portal to all federal, state and local government web resources and services.